User: anonymous   Login
Location: Unspecified
(0.0000°N, 0.0000°E)
Time: 12:27:56
(UTC+00:00)
Language:

NOSS 0 (A) - Orbit

View from above orbital plane
View from above orbital plane
View from above satellite
View from above satellite

Ground track
Ground track

The orbit data is extracted from the following two-line orbital elements,

1 05678U 71110A   14246.05611296 0.00000067  00000-0  71411-4 0    07
2 05678  69.9760 257.1462 0007000 189.3896 170.6103 13.73911638    03
Epoch (UTC): 03 September 2014 01:20:48
Eccentricity: 0.0007000
inclination: 69.9760°
perigee height: 980 km
apogee height: 991 km
right ascension of ascending node: 257.1462°
argument of perigee: 189.3896°
revolutions per day: 13.73911638
mean anomaly at epoch: 170.6103°
orbit number at epoch: 0

The dashed part of the orbit path shows where the satellite is in the earth's shadow,  

DLR